Flag for U.S.A. Weather past 2 weeks in Santa Rosa, California, U.S.A.

Now
57 °F

Clear.


Feels Like: 56 °F
Forecast: 53 / 85 °F
Wind: 6 mph from South

Location: Santa Rosa Sonoma County Airport

Current Time: Jul 28, 2014 at 1:02:15 AM

Latest Report: Jul 27, 2014 at 11:53 PM


Visibility: 10 mi

Pressure: 29.96 "Hg

Humidity: 90%

Dew point: 54 °F

Location of Santa RosaLocation

Historic Weather in Santa Rosa — Graph

°F

Santa Rosa temperature yesterday

Maximum temperature yesterday: 91 °F (at 1:53 PM)
Minimum temperature yesterday: 57 °F (at 11:53 PM)
Average temperature yesterday: 69 °F

Past Weeks' High & Low Weather Summary

 TemperatureHumidityPressure
High97 °F (Jul 25, 1:53 PM)96% (Jul 13, 1:53 AM)30.11 "Hg (Jul 13, 1:53 AM)
Low53 °F (Jul 14, 5:53 AM)13% (Jul 25, 4:53 PM)29.77 "Hg (Jul 25, 6:53 PM)
Average67 °F69%29.93 "Hg
* Reported Jul 12 11:53 PM — Jul 27 11:53 PM, Santa Rosa, Weather by CustomWeather, © 2014

Note: Actual official high and low records may vary slightly from our data, if they occured in-between our weather recording intervals... More about our weather records

Advertising

Santa Rosa weather history for previous 24 hours

 ConditionsComfort  
Time TempWeatherWind HumidityBarometerVisibility
11:53 PM
Jul 27
57 °FClear.6 mph90%29.96 "Hg10 mi
10:53 PM58 °FClear.5 mph87%29.95 "Hg10 mi
9:53 PM61 °FClear.7 mph78%29.95 "Hg10 mi
8:53 PM65 °FSunny.5 mph68%29.92 "Hg10 mi
7:53 PM71 °FSunny.10 mph49%29.90 "Hg10 mi
6:53 PM77 °FPassing clouds.10 mph42%29.88 "Hg10 mi
5:53 PM82 °FPassing clouds.14 mph34%29.88 "Hg10 mi
4:53 PM84 °FPassing clouds.9 mph35%29.88 "Hg10 mi
3:53 PM85 °FPassing clouds.14 mph36%29.89 "Hg10 mi
2:53 PM86 °FSunny.14 mph35%29.90 "Hg10 mi
1:53 PM91 °FPassing clouds.7 mph30%29.90 "Hg10 mi
12:53 PM86 °FScattered clouds.No wind33%29.92 "Hg10 mi
11:53 AM81 °FSunny.6 mph37%29.93 "Hg10 mi
10:53 AM74 °FSunny.3 mph50%29.95 "Hg10 mi
9:53 AM69 °FScattered clouds.5 mph61%29.96 "Hg9 mi
8:53 AM66 °FSunny.3 mph68%29.95 "Hg9 mi
7:53 AM60 °FBroken clouds.No wind80%29.94 "Hg8 mi
6:53 AM58 °FClear.No wind87%29.93 "Hg7 mi
5:53 AM58 °FClear.3 mph87%29.93 "Hg9 mi
4:53 AM58 °FClear.No wind87%29.92 "Hg9 mi
3:53 AM58 °FClear.3 mph87%29.92 "Hg8 mi
2:53 AM58 °FClear.No wind87%29.92 "Hg8 mi
1:53 AM58 °FClear.5 mph87%29.91 "Hg8 mi
Weather by CustomWeather, © 2014

See weather overviewHow to use our weather pages